Regional Weather Roundup
Issued by NWS Grand Forks, ND

Home | Current Version | Previous Version | Graphics & Text | Print | Product List | Glossary On
Versions: 1 2 3 4 5 6 7 8 9 10 11 12 13 14 15 16 17 18 19 20 21 22 23 24 25 26 27 28 29 30 31 32 33 34 35 36 37 38 39 40 41 42 43 44 45 46 47 48 49 50
000
ASUS43 KFGF 240710
RWRFGF
PRAIRIE TO PINES  WEATHER ROUNDUP
NATIONAL WEATHER SERVICE EASTERN NORTH DAKOTA/GRAND FORKS ND
200 AM CDT SUN SEP 24 2017

 **SATELLITE DATA USED TO AUGMENT SKY COVER AT AUTOMATED STATIONS**
 *****  WEATHER ACROSS EASTERN NORTH DAKOTA  *****

CITY           SKY/WX    TMP DP  RH WIND       PRES   REMARKS
GRAND FORKS    LGT RAIN  54  54 100 NE14      29.95F
GRAND FRKS AFB LGT RAIN  52  52  99 N10       29.98F
DEVILS LAKE    LGT RAIN  49  48  97 N10       30.03F
FARGO          CLOUDY    56  56 100 N7        29.90R
WAHPETON ARPT  PTSUNNY   59  55  88 E8        29.88F
$$

 ***** WEATHER ACROSS CENTRAL AND WESTERN NORTH DAKOTA  *****

CITY           SKY/WX    TMP DP  RH WIND       PRES   REMARKS
BISMARCK       RAIN      49  48  97 N13       30.02F
MINOT          RAIN      47  46  97 N12       30.09S
JAMESTOWN      LGT RAIN  50  49  96 N10       29.96F FOG
MINOT AFB      LGT RAIN  46  45  95 N7        30.08F
GARRISON         N/A     46  46 100 N9        30.07F
WILLISTON      LGT RAIN  45  43  93 N5        30.13F
DICKINSON      LGT RAIN  44  44 100 N10       30.03F
HETTINGER      LGT RAIN  45  42  89 NE13      30.03F
$$

 *****  OTHER AIRPORT OBSERVATIONS IN OUR AREA  *****

CITY           SKY/WX    TMP DP  RH WIND       PRES   REMARKS
WALHALLA       FAIR     N/A N/A N/A N8G15     30.05S
GRAFTON AIRPOR NOT AVBL
VALLEY CITY AR NOT AVBL
CANDO          LGT RAIN  48  48 100 N9        30.07F
CAVALIER APRT  LGT RAIN  50  50 100 N8G15     30.03F
GWINNER        CLOUDY    54  54 100 NE8       29.90F FOG
SHEYENNE NWR     N/A     54  54 100 N3        29.95S
ROLLA          LGT RAIN  46  46 100 N9        30.08S
 ***** THE ABOVE OBSERVATIONS ARE NON NWS ARE NOT QUALITY
       CONTROLLED AND MAY MIS-REPORT RAIN FOR SNOW...
$$

  *****  WEATHER ACROSS NORTHERN MINNESOTA  *****

CITY           SKY/WX    TMP DP  RH WIND       PRES   REMARKS
FLAG ISLAND    DRIZZLE   54  52  94 NE5       30.02S
WARROAD        HVY RAIN  55  52  88 NE8       30.02F
ROSEAU         LGT RAIN  54  48  82 NE7       30.01F
HALLOCK        DRIZZLE   52  52 100 N8        30.01F
THF RVR FALLS  LGT RAIN  54  54 100 NE10      29.97F
BAUDETTE       LGT RAIN  54  54 100 NE5       30.01F
WASKISH        CLOUDY    54  54 100 E5        30.00S
CROOKSTON      DRIZZLE   54  54 100 NE6       29.95F
STEPHEN NDAWN    N/A     54  52  94 VRB9        N/A
GREENBUSH NDAW   N/A     54  52  94 NE6         N/A
$$
  *****  WEATHER ACROSS CENTRAL AND WEST MINNESOTA  *****

CITY           SKY/WX    TMP DP  RH WIND       PRES   REMARKS
FOSSTON        RAIN      54  52  94 CALM      29.96F
BEMIDJI        RAIN      55  54  99 E8        29.96F
PARK RAPIDS    RAIN      58  57  97 E7        29.95F
ELBOW LAKE     PTSUNNY   60  60 100 SE10      29.92S
WADENA         LGT RAIN  57  57 100 E6        29.95F
DETROIT LAKES  CLOUDY    57  55  94 SE7       29.93F
MOORHEAD       DRIZZLE   55  55 100 NE3       29.90F
FERGUS FALLS   MOCLDY    61  61 100 E9        29.90F
MORRIS MN      NOT AVBL
STAPLES        CLOUDY    57  57 100 SW7       30.00R
$$
  *****  WEATHER ELSEWHERE ACROSS MINNESOTA  *****

CITY           SKY/WX    TMP DP  RH WIND       PRES   REMARKS
DULUTH         FAIR      64  64 100 NE7       29.98F
INTRNTL FALLS  CLOUDY    57  54  89 SE3       30.02F
ELY            RAIN      57  57 100 CALM      30.03S
CLOQUET        FAIR      64  59  82 CALM      29.98S
WHEATON        CLOUDY    61  59  94 SE8       29.91S
BRAINERD       CLOUDY    59  59 100 E7        29.94F
HIBBING        LGT RAIN  58  57  97 E7        29.98F
ALEXANDRIA     HVY RAIN  60  60 100 E9        29.96F FOG
SAINT CLOUD    FAIR      64  64 100 E6        29.93F
MINNEAPOLIS    FAIR      77  65  66 S13       29.94S
$$

  *****  WEATHER ACROSS SOUTH DAKOTA  *****

CITY           SKY/WX    TMP DP  RH WIND       PRES   REMARKS
SIOUX FALLS    CLOUDY    59  58  96 E7        29.90F
BROOKINGS      FAIR      59  58  96 E10       29.90F
WATERTOWN      CLOUDY    61  61 100 E6        29.88F
HURON          LGT RAIN  54  54 100 N8        29.86F
SISSETON         N/A     56  56 100 SW6       29.89F
ABERDEEN       LGT RAIN  54  54 100 NW7       29.91R
MITCHELL       CLOUDY    60  59  96 W8        29.90R
PIERRE         LGT RAIN  52  51  97 N3        29.91F
MOBRIDGE       RAIN      53  51  93 N12       29.92F
RAPID CITY     NOT AVBL
$$

  *****  SOME WEATHER IN NEARBY STATES *****

CITY           SKY/WX    TMP DP  RH WIND       PRES   REMARKS
GLASGOW MT     CLOUDY    46  40  79 E5        30.12F
GREAT FALLS MT CLOUDY    38  31  76 SW8       30.09S
CHEYENNE WY    CLOUDY    42  41  96 CALM      30.00R
SCOTTSBLUFF NE LGT RAIN  46  43  89 S3        29.96S
OMAHA NE       MOCLDY    74  65  73 S10       29.91S
DES MOINES IA  FAIR      74  64  71 SE8       29.96S
DAVENPORT IA   FAIR      70  63  78 SE7       30.04S
CHICAGO IL     FAIR      75  65  70 CALM      30.07R
EAU CLAIRE WI  FAIR      72  65  78 S7        29.98S
LA CROSSE WI   FAIR      72  66  81 S7        30.00R
$$

  *****  SOME NATIONAL WEATHER *****

CITY           SKY/WX    TMP DP  RH WIND       PRES   REMARKS
LA GUARDIA NY  FAIR      72  62  71 CALM      30.03S
RALEIGH NC     FAIR      67  64  90 CALM      30.07S
ATLANTA GA     FAIR      72  65  78 E5        30.03S
NEW ORLEANS LA FAIR      78  69  73 E3        29.90F
OKLAHOMA CITY  FAIR      72  65  78 S8        29.90S
ALBUQUERQUE NM MOCLDY    61  53  75 NW8       29.88R
SALT LAKE CITY LGT RAIN  45  42  89 SE5       29.92F
LOS ANGELES CA FAIR      63  56  78 E3        29.85S
BOISE ID       FAIR      44  35  70 MISG      30.01S
SEATTLE WA     FAIR      59  48  67 CALM      30.13S
$$

*** WEATHER ACROSS MANITOBA...SASKATCHEWAN AND ONTARIO ***
                ***ONTARIO***

CITY           SKY/WX    TMP DP  RH WIND       PRES   REMARKS
GERALDTON      CLOUDY    63  63 100 NW2       30.03R
THUNDER BAY    NOT AVBL
SIOUX LOOKOUT  DRIZZLE   55  55 100 VRB2      30.03S
TORONTO        CLEAR     73  66  78 W3        30.11R
BIG TROUT LK   CLOUDY    46  46 100 NE6       30.13S
PICKLE LAKE    NOT AVBL
DRYDEN         LGT RAIN  55  54  94 CALM      30.05R VSB 5/8
KENORA         LGT RAIN  52  52 100 N2        30.04R FOG
$$
                *** MANITOBA***

CITY           SKY/WX    TMP DP  RH WIND       PRES   REMARKS
BRANDON        LGT RAIN  46  45  93 NE5       30.11R
DAUPHIN        CLOUDY    46  46 100 N5        30.12F
ISLAND LAKE    NOT AVBL
PILOT MOUND      N/A     48  46  93 N8          N/A
THE PAS        CLOUDY    46  45  93 E7        30.17R
THOMPSON       CLOUDY    39  37  93 NE3       30.23S
WINNIPEG       LGT RAIN  50  48  93 N7        30.07F
LYNN LAKE      CLOUDY    37  37 100 SE2       30.22R
CHURCHILL      LGT RAIN  37  36  93 VRB2      30.28S
GILLAM         CLOUDY    39  37  93 NE9       30.24S
$$
                ***SASKATCHEWAN***

CITY           SKY/WX    TMP DP  RH WIND       PRES   REMARKS
ESTEVAN        LGT RAIN  45  45 100 CALM      30.15R
KINDERSLEY     MOCLDY    41  37  87 SW2       30.13R
LLOYDMINSTER   CLOUDY    41  37  87 S7        30.11S
PRINCE ALBERT  MOCLDY    36  34  93 N2        30.16S
REGINA         CLOUDY    39  37  93 CALM      30.15F
YORKTON        CLOUDY    45  43  93 W3        30.15R
N. BATTLEFORD  CLOUDY    43  39  87 SE2       30.15S
LA RONGE       MOCLDY    39  39 100 SW2       30.15S
SASKATOON      CLOUDY    45  39  81 SE3       30.15F
SWIFT CURRENT    N/A     37  36  93 S8        30.11F
$$
NOTE: THESE ARE AUTOMATED STATIONS WITH LIMITED QUALITY CONTROL
      "FAIR" INDICATES FEW OR NO CLOUDS BELOW 12,000 FEET WITH NO
      SIGNIFICANT WEATHER AND/OR OBSTRUCTIONS TO VISIBILITY.
      SKY/WX - SKY CONDITION AND SIGNIFICANT WEATHER.
      TMP - AIR TEMPERATURE.    DP   - DEWPOINT TEMPERATURE.
      RH  - RELATIVE HUMIDITY.  PRES - PRESSURE.
      HX  - HEAT INDEX.         WCI  - WIND CHILL INDEX.
$




USA.gov is the U.S. government's official web portal to all federal, state and local government web resources and services.